Hourly Data Report for September 06, 2017

All times are specified in Local Standard Time (LST). Add 1 hour to adjust for Daylight Saving Time where and when it is observed.

BAS CARAQUET
NEW BRUNSWICK

47°48'08.000" N
64°50'00.000" W
5.00 m
8100467
71598
WXS

Download Data

Hourly Data (September 2017)
Hourly Data Report for September 6, 2017
Temp Definition
°C
Dew Point Temp Definition
°C
Rel Hum Definition
%
Wind Dir Definition
10's deg

Wind Spd Definition
km/h
Visibility Definition
km
Stn Press Definition
kPa
Hmdx Definition


Wind Chill Definition


Weather Definition


TIME
00:00 18.5 16.8 90 18 5   100.88     LegendNANA
01:00 16.0 15.4 96 31 9   100.95     LegendNANA
02:00 16.0 15.6 98 13 4   100.92     LegendNANA
03:00 16.3 16.0 98 17 3   100.96     LegendNANA
04:00 16.3 16.1 99 0 1   100.91     LegendNANA
05:00 16.4 16.2 99 28 5   101.03     LegendNANA
06:00 15.6 15.4 99 30 6   101.12     LegendNANA
07:00 16.1 15.9 99 25 2   101.19     LegendNANA
08:00 16.7 16.5 99 16 6   101.20     LegendNANA
09:00 17.3 17.1 99 18 4   101.30     LegendNANA
10:00 17.8 17.3 97 17 5   101.37     LegendNANA
11:00 18.0 17.1 94 26 5   101.41     LegendNANA
12:00 17.5 16.6 95   0   101.42     LegendNANA
13:00 17.6 17.0 97 4 1   101.43     LegendNANA
14:00 17.8 17.5 98 16 2   101.41     LegendNANA
15:00 16.5 16.2 98 1 6   101.41     LegendNANA
16:00 16.2 16.1 99 1 5   101.43     LegendNANA
17:00 15.9 15.7 99 4 6   101.42     LegendNANA
18:00 15.6 15.5 99 35 6   101.45     LegendNANA
19:00 16.0 16.0 100 8 5   101.40     LegendNANA
20:00 16.5 16.4 100 11 5   101.43     LegendNANA
21:00 16.4 16.3 99 0 1   101.41     LegendNANA
22:00 15.9 15.8 100 32 3   101.40     LegendNANA
23:00 15.9 15.8 100   0   101.39     LegendNANA

Notes on Data Quality.

Legend

  • E = Estimated
  • M = Missing
  • NA = Not Available
  • ‡ = Partner data that is not subject to review by the National Climate Archives
Date modified: